Tracking 25709 objects as of 25-May-2022
HD Live streaming from Space Station
objects crossing your sky now

PAINANI-2

Track PAINANI-2 now!
10-day predictions


NORAD ID: 48928
Int'l Code: 2021-059BB
Perigee: 514.6 km
Apogee: 535.8 km
Inclination: 97.6 °
Period: 95.0 minutes
Semi major axis: 6896 km
RCS: Unknown
Launch date: June 30, 2021
Source: Mexico (MEX)
Launch site: AIR FORCE EASTERN TEST RANGE (AFETR)
aabbcc
Your satellite tracking list
Your tracking list is empty




NASA's NSSDC Master Catalog

Two Line Element Set (TLE):
1 48928U 21059BB  22144.59882902  .00008295  00000-0  43450-3 0  9997
2 48928  97.5535 275.0719 0015317 176.0412 184.0944 15.15959032 50360
Source of the keplerian elements: AFSPC